VLG6246 LEBL-LSZH

Flight info

Callsign VLG6246
Flight time 1h 21m
Altitude 34000
Route DALIN DCT PIVUS DCT DIBER DCT ADITA DCT MAXIR DCT LUSOL DCT BODRU DCT OKTET DCT IRMAR DCT KINES DCT VANAS DCT MOBLO DCT LAMUR DCT KORED N871 BERSU
Aircraft A321/M-SDE3FGHIRWY/LB1

Departure

Time 2026-05-01 09:09
Airport Josep Tarradellas Barcelona-El Prat Airport (LEBL)

Arrival

Time 2026-05-01 10:30
Airport Zürich Airport (LSZH)
Time Latitude Longitude Altitude Speed Heading
2026-05-01 08:43 41.28585 2.07409 17 ft 0 kts 322°
2026-05-01 09:01 41.28584 2.07411 17 ft 1 kts 322°
2026-05-01 09:02 41.28572 2.07423 17 ft 2 kts 321°
2026-05-01 09:02 41.28563 2.07433 17 ft 0 kts 322°
2026-05-01 09:02 41.28553 2.07443 17 ft 2 kts 311°
2026-05-01 09:02 41.28545 2.07460 17 ft 2 kts 298°
2026-05-01 09:03 41.28539 2.07478 17 ft 2 kts 284°
2026-05-01 09:03 41.28537 2.07498 17 ft 2 kts 271°
2026-05-01 09:03 41.28538 2.07517 17 ft 2 kts 258°
2026-05-01 09:03 41.28541 2.07532 17 ft 0 kts 247°
2026-05-01 09:04 41.28544 2.07540 17 ft 0 kts 245°
2026-05-01 09:04 41.28543 2.07540 17 ft 0 kts 245°
2026-05-01 09:05 41.28542 2.07536 17 ft 1 kts 245°
2026-05-01 09:06 41.28535 2.07515 17 ft 3 kts 246°
2026-05-01 09:06 41.28523 2.07478 17 ft 5 kts 246°
2026-05-01 09:06 41.28506 2.07427 17 ft 6 kts 238°
2026-05-01 09:06 41.28466 2.07406 18 ft 5 kts 180°
2026-05-01 09:07 41.28424 2.07400 19 ft 8 kts 198°
2026-05-01 09:07 41.28354 2.07348 20 ft 12 kts 210°
2026-05-01 09:07 41.28281 2.07369 21 ft 10 kts 150°
2026-05-01 09:07 41.28242 2.07448 21 ft 10 kts 90°
2026-05-01 09:08 41.28256 2.07507 21 ft 10 kts 67°
2026-05-01 09:08 41.28340 2.07754 18 ft 60 kts 63°
2026-05-01 09:08 41.28614 2.08541 19 ft 124 kts 66°
2026-05-01 09:08 41.29036 2.09787 103 ft 166 kts 67°
2026-05-01 09:09 41.29505 2.11181 729 ft 166 kts 67°
2026-05-01 09:09 41.29668 2.12687 1369 ft 170 kts 95°
2026-05-01 09:09 41.29438 2.14208 1927 ft 169 kts 98°
2026-05-01 09:09 41.29218 2.15783 2202 ft 180 kts 96°
2026-05-01 09:10 41.28999 2.17462 2490 ft 190 kts 97°
2026-05-01 09:10 41.28759 2.19247 2839 ft 199 kts 96°
2026-05-01 09:10 41.28574 2.21053 3307 ft 202 kts 95°
2026-05-01 09:10 41.28408 2.22925 3815 ft 204 kts 95°
2026-05-01 09:11 41.28229 2.24780 4334 ft 206 kts 97°
2026-05-01 09:11 41.28016 2.26668 4862 ft 208 kts 97°
2026-05-01 09:11 41.27805 2.28550 5379 ft 211 kts 98°
2026-05-01 09:11 41.27587 2.30503 5907 ft 214 kts 98°
2026-05-01 09:12 41.27365 2.32460 6344 ft 222 kts 98°
2026-05-01 09:12 41.27129 2.34567 6605 ft 241 kts 98°
2026-05-01 09:12 41.26895 2.36846 6954 ft 259 kts 97°
2026-05-01 09:12 41.26650 2.39278 7488 ft 270 kts 97°
2026-05-01 09:13 41.26394 2.41769 8198 ft 274 kts 97°
2026-05-01 09:13 41.26133 2.44263 8911 ft 276 kts 97°
2026-05-01 09:13 41.25865 2.46800 9589 ft 280 kts 97°
2026-05-01 09:13 41.25593 2.49355 10226 ft 284 kts 97°
2026-05-01 09:14 41.25312 2.51981 10703 ft 294 kts 97°
2026-05-01 09:14 41.25107 2.54789 10995 ft 310 kts 87°
2026-05-01 09:14 41.25568 2.57619 11271 ft 325 kts 67°
2026-05-01 09:14 41.26750 2.60235 11683 ft 335 kts 54°
2026-05-01 09:15 41.28114 2.62753 12273 ft 339 kts 54°
2026-05-01 09:15 41.29491 2.65293 12897 ft 342 kts 53°
2026-05-01 09:15 41.31121 2.67618 13468 ft 346 kts 39°
2026-05-01 09:15 41.33145 2.69321 14042 ft 348 kts 25°
2026-05-01 09:16 41.35423 2.70508 14620 ft 351 kts 20°
2026-05-01 09:16 41.37741 2.71601 15158 ft 355 kts 19°
2026-05-01 09:16 41.40065 2.72694 15690 ft 358 kts 19°
2026-05-01 09:17 41.44780 2.74953 16748 ft 365 kts 19°
2026-05-01 09:17 41.47185 2.76118 17256 ft 368 kts 20°
2026-05-01 09:17 41.51533 2.79607 18194 ft 376 kts 47°
2026-05-01 09:18 41.53033 2.82506 18707 ft 379 kts 60°
2026-05-01 09:18 41.55524 2.88709 19637 ft 386 kts 61°
2026-05-01 09:19 41.58069 2.95070 20533 ft 392 kts 61°
2026-05-01 09:19 41.59370 2.98294 20978 ft 395 kts 60°
2026-05-01 09:19 41.60690 3.01559 21415 ft 398 kts 60°
2026-05-01 09:20 41.63322 3.08074 22244 ft 404 kts 60°
2026-05-01 09:20 41.65997 3.14700 23034 ft 409 kts 60°
2026-05-01 09:21 41.68607 3.21480 23807 ft 415 kts 64°
2026-05-01 09:21 41.69806 3.25019 24187 ft 418 kts 64°
2026-05-01 09:21 41.72161 3.32098 24923 ft 422 kts 65°
2026-05-01 09:22 41.74565 3.39315 25608 ft 428 kts 64°
2026-05-01 09:22 41.77005 3.46639 26281 ft 432 kts 65°
2026-05-01 09:23 41.78217 3.50285 26632 ft 434 kts 65°
2026-05-01 09:23 41.80669 3.57682 27251 ft 439 kts 65°
2026-05-01 09:24 41.83156 3.65206 27852 ft 443 kts 65°
2026-05-01 09:24 41.84392 3.68956 28138 ft 445 kts 65°
2026-05-01 09:24 41.86912 3.76612 28690 ft 450 kts 65°
2026-05-01 09:25 41.89424 3.84267 29214 ft 454 kts 65°
2026-05-01 09:25 41.91973 3.92060 29731 ft 458 kts 65°
2026-05-01 09:26 41.93245 3.95957 29985 ft 460 kts 65°
2026-05-01 09:26 41.95802 4.03793 30673 ft 459 kts 65°
2026-05-01 09:26 41.97071 4.07695 31005 ft 458 kts 65°
2026-05-01 09:27 41.99604 4.15509 31622 ft 458 kts 65°
2026-05-01 09:27 42.00870 4.19421 31910 ft 458 kts 65°
2026-05-01 09:27 42.02135 4.23339 32226 ft 458 kts 65°
2026-05-01 09:28 42.03411 4.27293 32513 ft 458 kts 65°
2026-05-01 09:28 42.04674 4.31173 32740 ft 458 kts 63°
2026-05-01 09:28 42.06116 4.35025 32957 ft 459 kts 59°
2026-05-01 09:28 42.07751 4.38687 33185 ft 458 kts 54°
2026-05-01 09:29 42.11639 4.45505 33610 ft 457 kts 45°
2026-05-01 09:29 42.13835 4.48565 33848 ft 456 kts 41°
2026-05-01 09:30 42.18538 4.54288 34210 ft 458 kts 38°
2026-05-01 09:30 42.25644 4.62795 34216 ft 457 kts 39°
2026-05-01 09:31 42.30379 4.68509 34218 ft 456 kts 39°
2026-05-01 09:32 42.37449 4.77078 34220 ft 456 kts 39°
2026-05-01 09:32 42.44490 4.85645 34222 ft 455 kts 39°
2026-05-01 09:33 42.49168 4.91350 34222 ft 455 kts 39°
2026-05-01 09:34 42.56179 4.99925 34227 ft 453 kts 39°
2026-05-01 09:34 42.63176 5.08508 34229 ft 452 kts 39°
2026-05-01 09:35 42.70146 5.17087 34230 ft 452 kts 39°
2026-05-01 09:36 42.74818 5.22853 34231 ft 451 kts 39°
2026-05-01 09:36 42.79443 5.28572 34232 ft 451 kts 39°
2026-05-01 09:37 42.84067 5.34303 34233 ft 450 kts 39°
2026-05-01 09:37 42.90992 5.42908 34232 ft 450 kts 39°
2026-05-01 09:38 42.97897 5.51516 34234 ft 449 kts 39°
2026-05-01 09:39 43.04801 5.60148 34238 ft 449 kts 39°
2026-05-01 09:39 43.09398 5.65914 34236 ft 449 kts 40°
2026-05-01 09:40 43.16301 5.74595 34242 ft 448 kts 40°
2026-05-01 09:41 43.20877 5.80366 34242 ft 448 kts 40°
2026-05-01 09:41 43.27723 5.89021 34250 ft 447 kts 40°
2026-05-01 09:42 43.32263 5.94776 34250 ft 447 kts 39°
2026-05-01 09:42 43.36987 5.99680 34251 ft 441 kts 27°
2026-05-01 09:43 43.42273 6.03071 34255 ft 436 kts 16°
2026-05-01 09:43 43.48138 6.04913 34252 ft 431 kts
2026-05-01 09:44 43.57082 6.05850 34258 ft 430 kts
2026-05-01 09:45 43.63036 6.06421 34261 ft 430 kts
2026-05-01 09:45 43.71968 6.07592 34260 ft 432 kts
2026-05-01 09:46 43.77843 6.09433 34269 ft 434 kts 13°
2026-05-01 09:46 43.83529 6.12258 34274 ft 436 kts 20°
2026-05-01 09:47 43.89016 6.15872 34270 ft 436 kts 23°
2026-05-01 09:47 43.94445 6.19599 34272 ft 436 kts 23°
2026-05-01 09:48 43.99849 6.23305 34275 ft 436 kts 23°
2026-05-01 09:48 44.05275 6.27029 34277 ft 435 kts 23°
2026-05-01 09:49 44.10715 6.30766 34274 ft 435 kts 23°
2026-05-01 09:49 44.16125 6.34492 34280 ft 435 kts 24°
2026-05-01 09:50 44.21540 6.38229 34278 ft 434 kts 24°
2026-05-01 09:50 44.26957 6.41966 34288 ft 434 kts 24°
2026-05-01 09:51 44.32370 6.45712 34289 ft 433 kts 24°
2026-05-01 09:51 44.37730 6.49433 34286 ft 433 kts 24°
2026-05-01 09:52 44.43102 6.53169 34279 ft 433 kts 24°
2026-05-01 09:52 44.48490 6.56924 34276 ft 432 kts 25°
2026-05-01 09:53 44.53841 6.60654 34276 ft 431 kts 25°
2026-05-01 09:53 44.59195 6.64396 34273 ft 430 kts 25°
2026-05-01 09:54 44.64573 6.68167 34284 ft 431 kts 26°
2026-05-01 09:54 44.69948 6.71944 34295 ft 431 kts 26°
2026-05-01 09:55 44.75411 6.75374 34308 ft 431 kts 20°
2026-05-01 09:55 44.81186 6.77583 34308 ft 433 kts 11°
2026-05-01 09:56 44.87194 6.78465 34290 ft 436 kts
2026-05-01 09:56 44.93250 6.78228 34283 ft 439 kts 358°
2026-05-01 09:57 44.99345 6.77801 34292 ft 439 kts 358°
2026-05-01 09:57 45.05454 6.77381 34298 ft 440 kts 358°
2026-05-01 09:58 45.11586 6.76967 34296 ft 440 kts 358°
2026-05-01 09:58 45.17728 6.76557 34290 ft 441 kts 358°
2026-05-01 09:59 45.23821 6.76147 34288 ft 441 kts 358°
2026-05-01 09:59 45.29955 6.75734 34293 ft 441 kts 358°
2026-05-01 10:00 45.36076 6.75324 34296 ft 441 kts 359°
2026-05-01 10:00 45.42202 6.74916 34306 ft 441 kts 359°
2026-05-01 10:01 45.48359 6.74503 34316 ft 442 kts 359°
2026-05-01 10:01 45.54478 6.74083 34318 ft 442 kts 359°
2026-05-01 10:02 45.60628 6.73662 34316 ft 442 kts 359°
2026-05-01 10:02 45.66767 6.73241 34313 ft 442 kts 359°
2026-05-01 10:03 45.72877 6.72863 34311 ft 442 kts
2026-05-01 10:03 45.79011 6.73444 34311 ft 441 kts 10°
2026-05-01 10:04 45.84995 6.75365 34314 ft 439 kts 19°
2026-05-01 10:04 45.90653 6.78512 34318 ft 438 kts 26°
2026-05-01 10:05 45.96190 6.82140 34318 ft 438 kts 26°
2026-05-01 10:05 46.01702 6.85775 34319 ft 438 kts 26°
2026-05-01 10:06 46.07237 6.89419 34327 ft 437 kts 26°
2026-05-01 10:06 46.12769 6.93061 34329 ft 437 kts 26°
2026-05-01 10:07 46.18306 6.96716 34347 ft 436 kts 26°
2026-05-01 10:07 46.23813 7.00357 34332 ft 436 kts 26°
2026-05-01 10:08 46.29297 7.03992 33926 ft 434 kts 26°
2026-05-01 10:08 46.32039 7.05810 33668 ft 431 kts 26°
2026-05-01 10:08 46.34750 7.07611 33393 ft 428 kts 26°
2026-05-01 10:09 46.37449 7.09406 33135 ft 425 kts 26°
2026-05-01 10:09 46.40115 7.11182 32877 ft 425 kts 26°
2026-05-01 10:09 46.42778 7.12957 32613 ft 425 kts 26°
2026-05-01 10:09 46.45474 7.14757 32346 ft 425 kts 26°
2026-05-01 10:10 46.48139 7.16539 32086 ft 425 kts 26°
2026-05-01 10:10 46.50819 7.18331 31822 ft 425 kts 26°
2026-05-01 10:10 46.56194 7.21934 31298 ft 425 kts 26°
2026-05-01 10:11 46.58846 7.23712 31039 ft 425 kts 26°
2026-05-01 10:11 46.61524 7.25511 30776 ft 425 kts 26°
2026-05-01 10:11 46.64212 7.27316 30514 ft 425 kts 26°
2026-05-01 10:11 46.66900 7.29125 30254 ft 425 kts 26°
2026-05-01 10:12 46.69595 7.30942 29992 ft 426 kts 26°
2026-05-01 10:12 46.72253 7.32737 29726 ft 425 kts 26°
2026-05-01 10:12 46.77613 7.36360 29197 ft 422 kts 26°
2026-05-01 10:13 46.80248 7.38144 28942 ft 420 kts 26°
2026-05-01 10:13 46.82822 7.40107 28674 ft 416 kts 33°
2026-05-01 10:13 46.85170 7.42579 28412 ft 413 kts 40°
2026-05-01 10:14 46.89028 7.48622 27836 ft 408 kts 51°
2026-05-01 10:14 46.90795 7.51876 27501 ft 406 kts 52°
2026-05-01 10:14 46.92534 7.55107 27089 ft 404 kts 52°
2026-05-01 10:14 46.94268 7.58328 26639 ft 401 kts 52°
2026-05-01 10:15 46.95986 7.61511 26179 ft 398 kts 52°
2026-05-01 10:15 46.97751 7.64571 25637 ft 396 kts 44°
2026-05-01 10:15 47.00015 7.66908 24673 ft 405 kts 31°
2026-05-01 10:15 47.02531 7.68838 23852 ft 408 kts 29°
2026-05-01 10:16 47.05025 7.70707 23234 ft 405 kts 29°
2026-05-01 10:16 47.07541 7.72652 22658 ft 402 kts 30°
2026-05-01 10:16 47.12368 7.76546 21488 ft 396 kts 31°
2026-05-01 10:17 47.14772 7.78529 20936 ft 393 kts 31°
2026-05-01 10:17 47.19497 7.82390 19848 ft 387 kts 29°
2026-05-01 10:17 47.21886 7.84192 19294 ft 385 kts 28°
2026-05-01 10:18 47.26593 7.87711 18247 ft 380 kts 28°
2026-05-01 10:18 47.28949 7.89486 17719 ft 377 kts 28°
2026-05-01 10:18 47.31257 7.91233 17216 ft 374 kts 29°
2026-05-01 10:19 47.33573 7.92989 16723 ft 371 kts 29°
2026-05-01 10:19 47.35839 7.94708 16220 ft 368 kts 29°
2026-05-01 10:19 47.38101 7.96428 15734 ft 365 kts 29°
2026-05-01 10:20 47.42569 7.99829 14811 ft 358 kts 29°
2026-05-01 10:20 47.44780 8.01514 14490 ft 351 kts 29°
2026-05-01 10:20 47.46926 8.03153 14161 ft 344 kts 29°
2026-05-01 10:20 47.49011 8.04746 13829 ft 336 kts 29°
2026-05-01 10:21 47.51060 8.06311 13440 ft 326 kts 29°
2026-05-01 10:21 47.54980 8.09315 12501 ft 312 kts 29°
2026-05-01 10:21 47.56896 8.10783 12033 ft 307 kts 29°
2026-05-01 10:22 47.60625 8.13623 11115 ft 296 kts 29°
2026-05-01 10:22 47.63721 8.17294 10250 ft 283 kts 47°
2026-05-01 10:23 47.65056 8.19413 9830 ft 278 kts 48°
2026-05-01 10:23 47.67470 8.23659 8933 ft 259 kts 67°
2026-05-01 10:23 47.67680 8.26203 8261 ft 253 kts 102°
2026-05-01 10:24 47.65568 8.30150 7154 ft 245 kts 137°
2026-05-01 10:24 47.63054 8.33389 6145 ft 233 kts 136°
2026-05-01 10:25 47.60748 8.36491 5238 ft 216 kts 135°
2026-05-01 10:25 47.58680 8.39316 4467 ft 193 kts 134°
2026-05-01 10:26 47.57709 8.40643 4110 ft 186 kts 135°
2026-05-01 10:26 47.56776 8.41919 3739 ft 182 kts 135°
2026-05-01 10:26 47.55024 8.44308 3193 ft 158 kts 134°
2026-05-01 10:27 47.53498 8.46389 2799 ft 147 kts 134°
2026-05-01 10:27 47.51998 8.48440 2430 ft 146 kts 135°
2026-05-01 10:28 47.51245 8.49464 2207 ft 148 kts 135°
2026-05-01 10:28 47.49750 8.51487 1869 ft 147 kts 135°
2026-05-01 10:28 47.49005 8.52521 1702 ft 145 kts 135°
2026-05-01 10:29 47.47544 8.54518 1382 ft 132 kts 136°
2026-05-01 10:29 47.46989 8.55274 1383 ft 85 kts 136°
2026-05-01 10:30 47.46560 8.55863 1389 ft 11 kts 135°
2026-05-01 10:30 47.46446 8.55929 1392 ft 6 kts 167°
2026-05-01 10:31 47.46354 8.55960 1392 ft 6 kts 166°
2026-05-01 10:31 47.46241 8.55997 1395 ft 7 kts 168°
2026-05-01 10:32 47.46092 8.55988 1396 ft 16 kts 186°
2026-05-01 10:32 47.45977 8.55969 1396 ft 14 kts 192°
2026-05-01 10:32 47.45850 8.55905 1397 ft 6 kts 199°
2026-05-01 10:33 47.45834 8.55897 1398 ft 0 kts 198°
2026-05-01 10:33 47.45737 8.55864 1397 ft 10 kts 180°
2026-05-01 10:34 47.45662 8.55858 1397 ft 10 kts 185°
2026-05-01 10:34 47.45593 8.55847 1399 ft 9 kts 186°
2026-05-01 10:34 47.45530 8.55831 1399 ft 8 kts 210°
2026-05-01 10:35 47.45430 8.55804 1399 ft 2 kts 185°
2026-05-01 10:35 47.45428 8.55804 1399 ft 0 kts 185°